Location: Newark
(43.6583°N, 1.6617°E)
Time: 12:25:48
(UTC+00:00)

Tiros 1 - Pass Details

Date: 28 August 2019
Orbit: 630 x 664 km, 48.4° (Epoch: 20 September)

Event Time Altitude Azimuth Distance (km) Brightness Sun altitude
Rises 05:16:50 0° 279° (W) 2,937 9.9 0.0°
Reaches altitude 10° 05:21:25 10° 238° (WSW) 2,032 9.1 0.8°
Maximum altitude 05:22:06 10° 230° (SW) 2,013 9.2 0.9°
Drops below altitude 10° 05:22:47 10° 221° (SW) 2,033 9.2 1.1°
Sets 05:27:24 0° 180° (S) 2,947 10.4 1.9°
